AUA729 LOWW-LQSA

Flight info

Callsign AUA729
Flight time 0h 58m
Altitude 33000
Route STEIN DCT NOHAT DCT KOPRY DCT BOSNA
Aircraft A320/M-SDE3FGHIRWY/LB1

Departure

Time 2026-04-20 13:15
Airport Vienna International Airport (LOWW)

Arrival

Time 2026-04-20 14:13
Airport Sarajevo International Airport (LQSA)
Time Latitude Longitude Altitude Speed Heading
2026-04-20 12:33 48.11862 16.56876 626 ft 0 kts 206°
2026-04-20 12:51 48.11862 16.56877 610 ft 0 kts 206°
2026-04-20 12:59 48.11863 16.56877 611 ft 0 kts 206°
2026-04-20 13:07 48.11878 16.56888 621 ft 4 kts 204°
2026-04-20 13:07 48.11903 16.56903 618 ft 4 kts 198°
2026-04-20 13:07 48.11929 16.56913 621 ft 4 kts 183°
2026-04-20 13:07 48.11952 16.56908 621 ft 4 kts 132°
2026-04-20 13:08 48.11956 16.56901 627 ft 2 kts 116°
2026-04-20 13:08 48.11957 16.56901 611 ft 0 kts 116°
2026-04-20 13:11 48.11944 16.56940 623 ft 7 kts 116°
2026-04-20 13:11 48.11923 16.57004 618 ft 7 kts 115°
2026-04-20 13:11 48.11900 16.57077 614 ft 9 kts 116°
2026-04-20 13:11 48.11858 16.57206 616 ft 18 kts 116°
2026-04-20 13:12 48.11785 16.57355 621 ft 19 kts 159°
2026-04-20 13:12 48.11628 16.57422 618 ft 28 kts 164°
2026-04-20 13:12 48.11430 16.57409 615 ft 33 kts 218°
2026-04-20 13:12 48.11260 16.57298 617 ft 21 kts 210°
2026-04-20 13:13 48.11186 16.57346 613 ft 16 kts 120°
2026-04-20 13:13 48.11126 16.57531 617 ft 24 kts 117°
2026-04-20 13:13 48.11020 16.57629 611 ft 14 kts 211°
2026-04-20 13:13 48.11015 16.57626 611 ft 0 kts 202°
2026-04-20 13:14 48.11011 16.57624 611 ft 5 kts 202°
2026-04-20 13:14 48.10929 16.57552 613 ft 20 kts 235°
2026-04-20 13:14 48.10976 16.57372 618 ft 17 kts 292°
2026-04-20 13:14 48.11077 16.57036 615 ft 66 kts 296°
2026-04-20 13:15 48.11387 16.56120 624 ft 128 kts 296°
2026-04-20 13:15 48.11859 16.54703 661 ft 171 kts 297°
2026-04-20 13:15 48.12361 16.53067 1258 ft 177 kts 296°
2026-04-20 13:15 48.12751 16.51308 2028 ft 182 kts 274°
2026-04-20 13:16 48.12293 16.49451 2504 ft 208 kts 229°
2026-04-20 13:16 48.10961 16.48504 3257 ft 222 kts 193°
2026-04-20 13:16 48.09392 16.48310 4060 ft 227 kts 186°
2026-04-20 13:16 48.07812 16.48232 4905 ft 228 kts 187°
2026-04-20 13:17 48.06219 16.48066 5703 ft 229 kts 194°
2026-04-20 13:17 48.04700 16.47345 6254 ft 237 kts 212°
2026-04-20 13:17 48.03184 16.46113 6632 ft 259 kts 217°
2026-04-20 13:17 48.01626 16.44660 7305 ft 268 kts 218°
2026-04-20 13:18 48.00030 16.43172 8158 ft 273 kts 212°
2026-04-20 13:18 47.98845 16.42489 8748 ft 280 kts 199°
2026-04-20 13:18 47.96874 16.42273 9648 ft 291 kts 178°
2026-04-20 13:18 47.94158 16.43157 10418 ft 312 kts 171°
2026-04-20 13:19 47.92730 16.43664 10684 ft 323 kts 171°
2026-04-20 13:19 47.90517 16.44454 11362 ft 330 kts 171°
2026-04-20 13:19 47.87535 16.45520 12341 ft 336 kts 172°
2026-04-20 13:19 47.85248 16.46331 13073 ft 340 kts 172°
2026-04-20 13:20 47.83681 16.46884 13597 ft 344 kts 172°
2026-04-20 13:20 47.80577 16.47983 14464 ft 349 kts 172°
2026-04-20 13:20 47.78971 16.48551 14913 ft 351 kts 172°
2026-04-20 13:20 47.76587 16.49392 15591 ft 354 kts 173°
2026-04-20 13:21 47.74179 16.50237 16263 ft 357 kts 173°
2026-04-20 13:21 47.71750 16.51086 16928 ft 360 kts 173°
2026-04-20 13:21 47.69307 16.51939 17595 ft 362 kts 173°
2026-04-20 13:21 47.66846 16.52796 18253 ft 365 kts 173°
2026-04-20 13:22 47.64359 16.53664 18834 ft 368 kts 174°
2026-04-20 13:22 47.61858 16.54539 19382 ft 372 kts 174°
2026-04-20 13:22 47.59355 16.55417 19895 ft 376 kts 174°
2026-04-20 13:22 47.56761 16.56326 20438 ft 380 kts 174°
2026-04-20 13:23 47.54178 16.57229 20968 ft 384 kts 174°
2026-04-20 13:23 47.51602 16.58128 21492 ft 387 kts 175°
2026-04-20 13:23 47.48953 16.58759 22023 ft 386 kts 180°
2026-04-20 13:23 47.46279 16.59282 22535 ft 390 kts 180°
2026-04-20 13:24 47.43578 16.59803 23030 ft 393 kts 181°
2026-04-20 13:24 47.40862 16.60050 23581 ft 390 kts 187°
2026-04-20 13:24 47.38140 16.60162 24021 ft 394 kts 187°
2026-04-20 13:24 47.35391 16.60275 24447 ft 397 kts 187°
2026-04-20 13:25 47.32611 16.60393 24862 ft 401 kts 187°
2026-04-20 13:25 47.29806 16.60516 25262 ft 405 kts 187°
2026-04-20 13:25 47.26981 16.60641 25662 ft 408 kts 188°
2026-04-20 13:25 47.24129 16.60770 26051 ft 412 kts 188°
2026-04-20 13:26 47.21251 16.60897 26388 ft 416 kts 188°
2026-04-20 13:26 47.18340 16.61017 26724 ft 420 kts 189°
2026-04-20 13:26 47.15408 16.61137 27079 ft 424 kts 189°
2026-04-20 13:26 47.12442 16.61266 27455 ft 428 kts 189°
2026-04-20 13:27 47.09450 16.61400 27806 ft 432 kts 189°
2026-04-20 13:27 47.06430 16.61534 28146 ft 435 kts 189°
2026-04-20 13:27 47.03389 16.61664 28494 ft 439 kts 189°
2026-04-20 13:27 47.00323 16.61793 28802 ft 442 kts 189°
2026-04-20 13:28 46.97241 16.61920 29114 ft 445 kts 189°
2026-04-20 13:28 46.94133 16.62054 29432 ft 449 kts 190°
2026-04-20 13:28 46.90997 16.62189 29750 ft 452 kts 190°
2026-04-20 13:28 46.87842 16.62328 30050 ft 455 kts 190°
2026-04-20 13:29 46.84668 16.62472 30322 ft 459 kts 189°
2026-04-20 13:29 46.81441 16.63018 30593 ft 475 kts 179°
2026-04-20 13:29 46.78215 16.64349 30815 ft 491 kts 168°
2026-04-20 13:29 46.75022 16.66232 31080 ft 496 kts 166°
2026-04-20 13:30 46.71824 16.68142 31355 ft 498 kts 166°
2026-04-20 13:30 46.68611 16.70058 31620 ft 499 kts 166°
2026-04-20 13:30 46.65455 16.71938 31990 ft 498 kts 166°
2026-04-20 13:30 46.62192 16.73876 32399 ft 497 kts 166°
2026-04-20 13:31 46.58999 16.75765 32777 ft 496 kts 166°
2026-04-20 13:31 46.55810 16.77653 32987 ft 496 kts 165°
2026-04-20 13:31 46.52629 16.79535 33050 ft 488 kts 166°
2026-04-20 13:31 46.49539 16.81369 33049 ft 472 kts 166°
2026-04-20 13:32 46.46530 16.83150 33053 ft 462 kts 166°
2026-04-20 13:32 46.40607 16.86609 33057 ft 458 kts 166°
2026-04-20 13:33 46.34739 16.90023 33059 ft 457 kts 166°
2026-04-20 13:33 46.28847 16.93478 33056 ft 457 kts 165°
2026-04-20 13:34 46.22943 16.96826 33061 ft 454 kts 169°
2026-04-20 13:34 46.16970 16.99616 33065 ft 450 kts 172°
2026-04-20 13:35 46.10963 17.02109 33058 ft 449 kts 173°
2026-04-20 13:35 46.04961 17.04627 33050 ft 449 kts 172°
2026-04-20 13:36 45.98973 17.07243 33062 ft 449 kts 171°
2026-04-20 13:36 45.93004 17.09875 33060 ft 449 kts 172°
2026-04-20 13:37 45.87032 17.12490 33020 ft 448 kts 171°
2026-04-20 13:37 45.81074 17.15087 33048 ft 447 kts 171°
2026-04-20 13:38 45.75121 17.17674 33056 ft 447 kts 171°
2026-04-20 13:38 45.69171 17.20250 33058 ft 446 kts 172°
2026-04-20 13:39 45.63191 17.22827 33051 ft 449 kts 171°
2026-04-20 13:39 45.57297 17.25369 33057 ft 444 kts 171°
2026-04-20 13:40 45.51388 17.27901 33055 ft 443 kts 171°
2026-04-20 13:40 45.45474 17.30427 32940 ft 450 kts 171°
2026-04-20 13:40 45.42463 17.31707 32682 ft 453 kts 171°
2026-04-20 13:41 45.39451 17.32994 32320 ft 451 kts 171°
2026-04-20 13:41 45.36453 17.34279 31772 ft 449 kts 171°
2026-04-20 13:41 45.33465 17.35563 31244 ft 447 kts 171°
2026-04-20 13:41 45.30499 17.36837 30742 ft 445 kts 171°
2026-04-20 13:42 45.27545 17.38102 30250 ft 443 kts 171°
2026-04-20 13:42 45.21658 17.40606 29104 ft 440 kts 171°
2026-04-20 13:42 45.18730 17.41846 28549 ft 438 kts 171°
2026-04-20 13:43 45.15820 17.43079 27997 ft 436 kts 171°
2026-04-20 13:43 45.12918 17.44307 27466 ft 434 kts 171°
2026-04-20 13:43 45.10036 17.45525 26940 ft 431 kts 171°
2026-04-20 13:43 45.07172 17.46734 26423 ft 429 kts 171°
2026-04-20 13:44 45.04322 17.47940 25916 ft 426 kts 171°
2026-04-20 13:44 45.01489 17.49138 25417 ft 424 kts 170°
2026-04-20 13:44 44.98675 17.50324 24891 ft 421 kts 170°
2026-04-20 13:44 44.95876 17.51498 24403 ft 418 kts 170°
2026-04-20 13:45 44.93095 17.52663 23941 ft 416 kts 170°
2026-04-20 13:45 44.90331 17.53824 23454 ft 413 kts 170°
2026-04-20 13:45 44.87585 17.54980 22897 ft 411 kts 170°
2026-04-20 13:45 44.84857 17.56126 22349 ft 408 kts 170°
2026-04-20 13:46 44.82137 17.57265 21816 ft 407 kts 170°
2026-04-20 13:46 44.79429 17.58397 21267 ft 405 kts 169°
2026-04-20 13:46 44.76735 17.59522 20748 ft 402 kts 169°
2026-04-20 13:46 44.74061 17.60637 20244 ft 401 kts 169°
2026-04-20 13:47 44.71394 17.61749 19744 ft 399 kts 169°
2026-04-20 13:47 44.68738 17.62856 19249 ft 397 kts 169°
2026-04-20 13:47 44.66093 17.63961 18766 ft 396 kts 169°
2026-04-20 13:47 44.63457 17.65058 18292 ft 394 kts 168°
2026-04-20 13:48 44.60833 17.66143 17745 ft 392 kts 168°
2026-04-20 13:48 44.58218 17.67222 17184 ft 391 kts 168°
2026-04-20 13:48 44.55618 17.68299 16655 ft 389 kts 168°
2026-04-20 13:48 44.53020 17.69377 16132 ft 388 kts 168°
2026-04-20 13:49 44.50440 17.70448 15622 ft 386 kts 167°
2026-04-20 13:49 44.47879 17.71509 15122 ft 383 kts 167°
2026-04-20 13:49 44.45331 17.72564 14617 ft 381 kts 167°
2026-04-20 13:49 44.42795 17.73610 14129 ft 378 kts 167°
2026-04-20 13:50 44.40313 17.74634 13617 ft 364 kts 167°
2026-04-20 13:50 44.37990 17.75896 13083 ft 353 kts 154°
2026-04-20 13:50 44.36024 17.77792 12552 ft 345 kts 140°
2026-04-20 13:50 44.34407 17.80199 12033 ft 335 kts 133°
2026-04-20 13:51 44.32906 17.82615 11520 ft 324 kts 133°
2026-04-20 13:51 44.31449 17.84948 11078 ft 314 kts 133°
2026-04-20 13:51 44.29997 17.87260 10975 ft 311 kts 133°
2026-04-20 13:51 44.28567 17.89532 10993 ft 312 kts 133°
2026-04-20 13:52 44.27153 17.91777 10996 ft 313 kts 133°
2026-04-20 13:52 44.25716 17.94054 10809 ft 312 kts 133°
2026-04-20 13:52 44.24294 17.96313 10580 ft 307 kts 133°
2026-04-20 13:52 44.22893 17.98528 10250 ft 303 kts 136°
2026-04-20 13:53 44.21280 18.00388 9887 ft 299 kts 152°
2026-04-20 13:53 44.19422 18.01596 9499 ft 291 kts 166°
2026-04-20 13:53 44.17457 18.02130 9127 ft 285 kts 179°
2026-04-20 13:53 44.15489 18.02382 8754 ft 283 kts 178°
2026-04-20 13:54 44.13529 18.02643 8367 ft 282 kts 177°
2026-04-20 13:54 44.11590 18.02909 7995 ft 278 kts 177°
2026-04-20 13:54 44.09679 18.03174 7623 ft 274 kts 176°
2026-04-20 13:54 44.07791 18.03433 7238 ft 273 kts 176°
2026-04-20 13:55 44.05905 18.03694 6849 ft 271 kts 177°
2026-04-20 13:55 44.04037 18.03951 6501 ft 268 kts 176°
2026-04-20 13:55 44.02231 18.04199 6432 ft 254 kts 176°
2026-04-20 13:55 44.00517 18.04435 6323 ft 239 kts 176°
2026-04-20 13:56 43.98922 18.04656 6216 ft 221 kts 177°
2026-04-20 13:56 43.97437 18.04862 6122 ft 210 kts 177°
2026-04-20 13:56 43.95993 18.05058 6033 ft 207 kts 177°
2026-04-20 13:56 43.94566 18.05258 5941 ft 206 kts 174°
2026-04-20 13:57 43.93215 18.05911 5833 ft 209 kts 151°
2026-04-20 13:57 43.92139 18.07269 5734 ft 212 kts 127°
2026-04-20 13:57 43.91425 18.09028 5486 ft 205 kts 118°
2026-04-20 13:57 43.90793 18.10771 5196 ft 201 kts 118°
2026-04-20 13:58 43.90168 18.12470 4909 ft 194 kts 120°
2026-04-20 13:58 43.89556 18.14122 4625 ft 191 kts 117°
2026-04-20 13:58 43.88953 18.15743 4336 ft 188 kts 116°
2026-04-20 13:58 43.88358 18.17341 4077 ft 185 kts 117°
2026-04-20 13:59 43.87781 18.18891 3811 ft 177 kts 116°
2026-04-20 13:59 43.87228 18.20375 3562 ft 169 kts 117°
2026-04-20 13:59 43.86698 18.21796 3343 ft 163 kts 117°
2026-04-20 13:59 43.86188 18.23163 3132 ft 158 kts 118°
2026-04-20 14:00 43.85690 18.24499 2923 ft 156 kts 118°
2026-04-20 14:00 43.85201 18.25808 2712 ft 154 kts 118°
2026-04-20 14:00 43.84703 18.27138 2486 ft 153 kts 119°
2026-04-20 14:00 43.84203 18.28447 2262 ft 152 kts 116°
2026-04-20 14:01 43.83741 18.29773 2032 ft 151 kts 117°
2026-04-20 14:01 43.83243 18.31058 1811 ft 150 kts 120°
2026-04-20 14:01 43.82773 18.32323 1674 ft 141 kts 118°
2026-04-20 14:01 43.82338 18.33474 1827 ft 140 kts 120°
2026-04-20 14:02 43.81858 18.34629 2557 ft 137 kts 123°
2026-04-20 14:02 43.81453 18.35806 3252 ft 136 kts 105°
2026-04-20 14:02 43.81355 18.37132 3589 ft 144 kts 76°
2026-04-20 14:02 43.82010 18.38192 3703 ft 159 kts 13°
2026-04-20 14:03 43.83046 18.37920 4108 ft 153 kts 313°
2026-04-20 14:03 43.83448 18.36634 4564 ft 152 kts 283°
2026-04-20 14:03 43.83977 18.35223 4520 ft 177 kts 326°
2026-04-20 14:03 43.85066 18.34651 5111 ft 170 kts 345°
2026-04-20 14:04 43.86414 18.34321 5128 ft 223 kts 348°
2026-04-20 14:04 43.88125 18.33934 5282 ft 276 kts 340°
2026-04-20 14:04 43.89708 18.32550 5457 ft 262 kts 311°
2026-04-20 14:04 43.90649 18.30594 5681 ft 230 kts 299°
2026-04-20 14:05 43.91758 18.29057 5898 ft 231 kts 329°
2026-04-20 14:05 43.93165 18.27982 5949 ft 230 kts 321°
2026-04-20 14:05 43.94299 18.26442 5955 ft 228 kts 307°
2026-04-20 14:05 43.95289 18.24730 5961 ft 228 kts 306°
2026-04-20 14:06 43.96259 18.22985 5961 ft 228 kts 305°
2026-04-20 14:06 43.97217 18.21243 5961 ft 227 kts 305°
2026-04-20 14:06 43.98175 18.19513 5964 ft 226 kts 305°
2026-04-20 14:06 43.99135 18.17789 5966 ft 225 kts 306°
2026-04-20 14:07 44.00011 18.15989 5961 ft 225 kts 291°
2026-04-20 14:07 44.00288 18.13901 5745 ft 219 kts 263°
2026-04-20 14:07 43.99821 18.11916 5661 ft 219 kts 237°
2026-04-20 14:07 43.98734 18.10433 5665 ft 223 kts 213°
2026-04-20 14:08 43.97850 18.09698 5670 ft 224 kts 211°
2026-04-20 14:08 43.96509 18.08594 5670 ft 224 kts 212°
2026-04-20 14:08 43.95172 18.07492 5670 ft 223 kts 211°
2026-04-20 14:08 43.93730 18.06800 5661 ft 218 kts 182°
2026-04-20 14:09 43.92328 18.07398 5640 ft 214 kts 146°
2026-04-20 14:09 43.91414 18.09024 5444 ft 218 kts 119°
2026-04-20 14:09 43.90729 18.10919 5165 ft 219 kts 117°
2026-04-20 14:09 43.90048 18.12790 4891 ft 215 kts 118°
2026-04-20 14:10 43.89372 18.14617 4552 ft 210 kts 117°
2026-04-20 14:10 43.88709 18.16399 4232 ft 206 kts 117°
2026-04-20 14:10 43.88064 18.18131 3943 ft 197 kts 116°
2026-04-20 14:10 43.87453 18.19771 3676 ft 186 kts 117°
2026-04-20 14:11 43.86873 18.21326 3429 ft 178 kts 117°
2026-04-20 14:11 43.86323 18.22802 3186 ft 167 kts 118°
2026-04-20 14:11 43.85802 18.24200 2990 ft 159 kts 118°
2026-04-20 14:11 43.85300 18.25542 2760 ft 155 kts 118°
2026-04-20 14:12 43.84811 18.26854 2521 ft 153 kts 120°
2026-04-20 14:12 43.84324 18.28164 2318 ft 152 kts 118°
2026-04-20 14:12 43.83849 18.29467 2044 ft 152 kts 118°
2026-04-20 14:12 43.83347 18.30758 1859 ft 152 kts 120°
2026-04-20 14:13 43.82875 18.32053 1668 ft 148 kts 118°
2026-04-20 14:13 43.82449 18.33184 1678 ft 111 kts 118°
2026-04-20 14:13 43.82283 18.33631 1694 ft 1 kts 91°
2026-04-20 14:13 43.82283 18.33642 1693 ft 0 kts 90°
2026-04-20 14:14 43.82288 18.33656 1685 ft 3 kts 59°
2026-04-20 14:14 43.82334 18.33668 1685 ft 12 kts 351°
2026-04-20 14:14 43.82412 18.33640 1684 ft 13 kts 344°
2026-04-20 14:14 43.82488 18.33554 1680 ft 14 kts 293°
2026-04-20 14:15 43.82526 18.33535 1680 ft 8 kts 28°
2026-04-20 14:15 43.82558 18.33560 1684 ft 2 kts 29°
2026-04-20 14:15 43.82561 18.33562 1684 ft 0 kts 29°